This demonstration page uses our WeatherBlox Daily Observations layout. Learn more.

Hourly Observations for April 23, 2016

Temp ( °F °C ) Dew Point ( °F °C ) Humidity (%) Winds ( mph kmh ) Pressure ( in mb ) Visibility ( mi km ) Precip ( " mm )
12:15 am 00:15 Clear 52 11.2 41 5.2 67 67 SSE 12 19 30 1016 10 16.0934 0 0
12:35 am 00:35 Clear 51 10.6 42 5.3 70 70 SSE 9 15 30 1016 10 16.0934 0 0
12:55 am 00:55 Clear 51 10.5 42 5.3 70 70 SSE 10 17 30 1016 10 16.0934 0 0
1:15 am 01:15 Clear 50 10.1 41 5.2 72 72 SSE 10 17 30 1016 10 16.0934 0 0
1:35 am 01:35 Clear 51 10.5 41 5.1 69 69 SSE 10 17 30 1016 10 16.0934 0 0
1:55 am 01:55 Clear 49 9.6 41 5.2 74 74 SSE 9 15 30 1016 10 16.0934 0 0
2:15 am 02:15 Clear 49 9.7 42 5.3 74 74 SSE 9 15 30 1016 10 16.0934 0 0
2:35 am 02:35 Clear 51 10.6 41 5.2 70 70 S 10 17 30 1016 10 16.0934 0 0
2:55 am 02:55 Clear 51 10.7 41 5.2 69 69 S 12 19 30 1016 10 16.0934 0 0
3:15 am 03:15 Clear 51 10.8 42 5.5 70 70 S 12 19 29.97 1015 10 16.0934 0 0
3:35 am 03:35 Clear 51 10.7 42 5.6 71 71 S 10 17 29.97 1015 10 16.0934 0 0
3:55 am 03:55 Clear 52 11 42 5.7 70 70 S 14 22 29.97 1015 10 16.0934 0 0
4:15 am 04:15 Clear 51 10.6 43 6 73 73 SSE 10 17 29.97 1015 10 16.0934 0 0
4:35 am 04:35 Clear 51 10.6 43 6 73 73 SSE 13 20 29.97 1015 10 16.0934 0 0
4:55 am 04:55 Clear 51 10.3 43 6 75 75 SSE 10 17 29.97 1015 10 16.0934 0 0
5:15 am 05:15 Clear 50 10 43 6.1 77 77 SSE 13 20 29.94 1014 10 16.0934 0 0
5:35 am 05:35 Clear 50 10 43 6.2 77 77 SSE 12 19 29.94 1014 10 16.0934 0 0
5:55 am 05:55 Clear 49 9.7 43 6 78 78 SSE 13 20 29.94 1014 10 16.0934 0 0
6:15 am 06:15 Clear 49 9.6 43 6.1 79 79 SSE 13 20 29.91 1013 10 16.0934 0 0
6:35 am 06:35 Clear 49 9.6 43 6.2 80 80 SSE 13 20 29.91 1013 10 16.0934 0 0
6:55 am 06:55 Sunny 49 9.6 43 6.2 80 80 SSE 16 26 29.91 1013 10 16.0934 0 0
7:15 am 07:15 Sunny 50 10.1 44 6.6 79 79 SSE 14 22 29.91 1013 10 16.0934 0 0
7:35 am 07:35 Sunny 51 10.7 45 7 78 78 SSE 15 24 29.91 1013 10 16.0934 0 0
7:55 am 07:55 Sunny 53 11.6 45 7.3 75 75 SSE 17 28 29.91 1013 10 16.0934 0 0
8:15 am 08:15 Sunny 55 12.7 46 7.5 71 71 SSE 16 26 29.88 1012 10 16.0934 0 0
8:35 am 08:35 Sunny 55 13 45 7.2 68 68 SSE 15 24 29.85 1011 10 16.0934 0 0
8:55 am 08:55 Sunny 57 13.9 46 7.5 66 66 SSE 20 31 29.85 1011 10 16.0934 0 0
9:15 am 09:15 Sunny 59 14.9 46 7.7 62 62 S 23 37 29.83 1010 10 16.0934 0 0
9:35 am 09:35 Sunny 60 15.5 46 7.6 60 60 S 24 39 29.83 1010 10 16.0934 0 0
9:55 am 09:55 Sunny 61 16 46 8 59 59 SSE 20 31 29.8 1009 10 16.0934 0 0
10:15 am 10:15 Sunny 62 16.5 47 8.3 59 59 S 21 33 29.8 1009 10 16.0934 0 0
10:35 am 10:35 Sunny 64 17.6 48 8.7 56 56 S 23 37 29.8 1009 10 16.0934 0 0
10:55 am 10:55 Sunny 65 18.2 48 9 55 55 S 23 37 29.74 1007 10 16.0934 0 0
11:15 am 11:15 Sunny 67 19.7 49 9.4 52 52 S 20 31 29.74 1007 10 16.0934 0 0
11:35 am 11:35 Sunny 68 20.1 48 9.1 49 49 S 23 37 29.74 1007 10 16.0934 0 0
11:55 am 11:55 Sunny 70 21 49 9.2 47 47 S 24 39 29.74 1007 10 16.0934 0 0
12:15 pm 12:15 Sunny 72 22 49 9.4 45 45 S 28 44 29.68 1005 10 16.0934 0 0
12:35 pm 12:35 Sunny 73 22.9 49 9.2 42 42 S 24 39 29.68 1005 10 16.0934 0 0
12:55 pm 12:55 Sunny 74 23.4 49 9.6 42 42 S 23 37 29.68 1005 10 16.0934 0 0
1:15 pm 13:15 Sunny 75 24.1 49 9.2 39 39 S 30 48 29.68 1005 10 16.0934 0 0
1:35 pm 13:35 Sunny 76 24.5 49 9.4 38 38 S 25 41 29.68 1005 10 16.0934 0 0
1:55 pm 13:55 Sunny 77 25.1 50 9.8 38 38 S 26 43 29.65 1004 10 16.0934 0 0
2:15 pm 14:15 Sunny 78 25.4 49 9.4 36 36 S 30 48 29.62 1003 10 16.0934 0 0
2:35 pm 14:35 Sunny 78 25.8 49 9.6 36 36 S 30 48 29.62 1003 10 16.0934 0 0
2:55 pm 14:55 Sunny 78 25.8 50 9.8 37 37 S 28 44 29.62 1003 10 16.0934 0 0
3:15 pm 15:15 Sunny 78 25.8 50 10.1 37 37 S 26 43 29.59 1002 10 16.0934 0 0
3:35 pm 15:35 Sunny 79 26.2 51 10.4 37 37 S 29 46 29.59 1002 10 16.0934 0 0
3:55 pm 15:55 Sunny 78 25.7 50 9.9 37 37 S 26 43 29.59 1002 10 16.0934 0 0
4:15 pm 16:15 Sunny 80 26.4 49 9.7 35 35 S 30 48 29.59 1002 10 16.0934 0 0
4:35 pm 16:35 Sunny 78 25.8 49 9.3 35 35 S 25 41 29.59 1002 10 16.0934 0 0
4:55 pm 16:55 Sunny 80 26.5 50 9.8 35 35 S 24 39 29.56 1001 10 16.0934 0 0
5:15 pm 17:15 Sunny 79 25.9 49 9.2 35 35 S 25 41 29.56 1001 10 16.0934 0 0
5:35 pm 17:35 Sunny 78 25.4 50 9.8 37 37 S 22 35 29.56 1001 10 16.0934 0 0
5:55 pm 17:55 Sunny 78 25.6 50 9.9 37 37 S 26 43 29.56 1001 10 16.0934 0 0
6:15 pm 18:15 Sunny 77 25 50 10 39 39 S 25 41 29.56 1001 10 16.0934 0 0
6:35 pm 18:35 Sunny 76 24.6 50 10.1 40 40 SSE 22 35 29.56 1001 10 16.0934 0 0
6:55 pm 18:55 Sunny 75 24 50 10.1 42 42 S 24 39 29.56 1001 10 16.0934 0 0
7:15 pm 19:15 Sunny 74 23.6 51 10.5 44 44 SSE 20 31 29.53 1000 10 16.0934 0 0
7:35 pm 19:35 Sunny 73 23 51 10.6 46 46 SSE 24 39 29.56 1001 10 16.0934 0 0
7:55 pm 19:55 Sunny 73 22.5 51 10.7 47 47 SSE 24 39 29.56 1001 10 16.0934 0 0
8:15 pm 20:15 Sunny 72 22.1 52 10.9 49 49 SSE 21 33 29.56 1001 10 16.0934 0 0
8:35 pm 20:35 Clear 71 21.5 52 11 51 51 SSE 22 35 29.56 1001 10 16.0934 0 0
8:55 pm 20:55 Clear 70 21.1 52 11.1 53 53 SSE 23 37 29.56 1001 10 16.0934 0 0
9:15 pm 21:15 Clear 69 20.6 52 11.1 55 55 SSE 22 35 29.56 1001 10 16.0934 0 0
9:35 pm 21:35 Clear 68 20.1 52 11 56 56 SSE 20 31 29.56 1001 10 16.0934 0 0
9:55 pm 21:55 Clear 67 19.7 52 11 57 57 SSE 20 31 29.62 1003 10 16.0934 0 0
10:15 pm 22:15 Clear 67 19.6 51 10.7 57 57 SSE 22 35 29.59 1002 10 16.0934 0 0
10:35 pm 22:35 Clear 67 19.3 51 10.5 57 57 S 22 35 29.59 1002 10 16.0934 0 0
10:55 pm 22:55 Clear 66 19 51 10.5 58 58 S 21 33 29.59 1002 10 16.0934 0 0
11:15 pm 23:15 Clear 66 18.8 51 10.3 58 58 S 20 31 29.59 1002 10 16.0934 0 0
11:35 pm 23:35 Clear 65 18.5 51 10.3 59 59 S 21 33 29.59 1002 10 16.0934 0 0
11:55 pm 23:55 Clear 64 17.9 51 10.5 62 62 S 16 26 29.59 1002 10 16.0934 0 0

Powered by AerisWeather